When you browse on this site, cookies collect data to enhance your experience and personalize the content and advertising you see.
Visit our Privacy Policy to learn more. By continuing to use the site, you agree to this use of cookies and data.
  • En España
  • Lista de países
  • Para 7 días
  • Temperatura del agua
  • Mapa Satelital
  • El tiempo en el mapa
  • Informadores
  • user-avatar
    Iniciar sesión

    Tiempo cada hora Shkoder

    Hoy, 12 Diciembre, Miércoles

    Tiempo Temperatura Precipitaciones Viento Presión Humedad
    00:00 +1°C° 0 mm 2 mps 741 mmHg 60%
    01:00 +1°C° 0 mm 2 mps 741 mmHg 60%
    02:00 +1°C° 0 mm 2 mps 741 mmHg 59%
    03:00 +1°C° 0 mm 2 mps 741 mmHg 59%
    04:00 +1°C° 0 mm 2 mps 741 mmHg 59%
    05:00 +1°C° 0 mm 2 mps 742 mmHg 58%
    06:00 -1°C° 0 mm 2 mps 742 mmHg 58%
    07:00 -1°C° 0 mm 2 mps 742 mmHg 58%
    08:00 +2°C° 0 mm 2 mps 742 mmHg 54%
    09:00 +4°C° 0 mm 1 mps 742 mmHg 50%
    10:00 +6°C° 0 mm 1 mps 743 mmHg 45%
    11:00 +7°C° 0 mm 1 mps 742 mmHg 44%
    12:00 +7°C° 0 mm 1 mps 742 mmHg 42%
    13:00 +8°C° 0 mm 1 mps 742 mmHg 41%
    14:00 +6°C° 0 mm 1 mps 742 mmHg 45%
    15:00 +5°C° 0 mm 1 mps 742 mmHg 49%
    16:00 +3°C° 0 mm 0 mps 742 mmHg 54%
    17:00 +3°C° 0 mm 1 mps 742 mmHg 55%
    18:00 +3°C° 0 mm 1 mps 743 mmHg 56%
    19:00 +3°C° 0 mm 1 mps 743 mmHg 57%
    20:00 +1°C° 0 mm 2 mps 743 mmHg 57%
    21:00 +1°C° 0 mm 2 mps 743 mmHg 56%
    22:00 +1°C° 0 mm 2 mps 743 mmHg 56%
    23:00 +1°C° 0 mm 2 mps 743 mmHg 55%

    Mañana, 13 Diciembre, Jueves

    Tiempo Temperatura Precipitaciones Viento Presión Humedad
    00:00 +1°C° 0 mm 2 mps 743 mmHg 53%
    01:00 +1°C° 0 mm 2 mps 743 mmHg 52%
    02:00 +1°C° 0 mm 2 mps 743 mmHg 51%
    03:00 +1°C° 0 mm 2 mps 743 mmHg 51%
    04:00 +1°C° 0 mm 2 mps 743 mmHg 50%
    05:00 +1°C° 0 mm 2 mps 742 mmHg 49%
    06:00 +1°C° 0 mm 2 mps 742 mmHg 48%
    07:00 -1°C° 0 mm 3 mps 742 mmHg 48%
    08:00 +2°C° 0 mm 2 mps 742 mmHg 46%
    09:00 +4°C° 0 mm 2 mps 742 mmHg 43%
    10:00 +5°C° 0 mm 2 mps 742 mmHg 41%
    11:00 +6°C° 0 mm 2 mps 741 mmHg 40%
    12:00 +7°C° 0 mm 2 mps 741 mmHg 39%
    13:00 +7°C° 0 mm 2 mps 740 mmHg 39%
    14:00 +6°C° 0 mm 2 mps 740 mmHg 44%
    15:00 +5°C° 0 mm 2 mps 740 mmHg 49%
    16:00 +4°C° 0 mm 2 mps 740 mmHg 54%
    17:00 +4°C° 0 mm 2 mps 740 mmHg 55%
    18:00 +2°C° 0 mm 3 mps 740 mmHg 57%
    19:00 +2°C° 0 mm 3 mps 740 mmHg 58%
    20:00 +2°C° 0 mm 3 mps 740 mmHg 57%
    21:00 +2°C° 0 mm 3 mps 740 mmHg 57%
    22:00 +2°C° 0 mm 3 mps 740 mmHg 57%
    23:00 +2°C° 0 mm 3 mps 740 mmHg 56%

    Pasado mañana, 14 Diciembre, Viernes

    Tiempo Temperatura Precipitaciones Viento Presión Humedad
    00:00 +2°C° 0 mm 3 mps 740 mmHg 56%
    01:00 +2°C° 0 mm 3 mps 740 mmHg 55%
    02:00 +3°C° 0 mm 3 mps 739 mmHg 56%
    03:00 +3°C° 0 mm 3 mps 739 mmHg 57%
    04:00 +3°C° 0 mm 3 mps 739 mmHg 58%
    05:00 +3°C° 0.2 mm 3 mps 739 mmHg 62%
    06:00 +3°C° 0.2 mm 3 mps 739 mmHg 65%
    07:00 +4°C° 0.2 mm 3 mps 739 mmHg 69%
    08:00 +4°C° 0.5 mm 3 mps 739 mmHg 72%
    09:00 +5°C° 0.5 mm 3 mps 739 mmHg 75%
    10:00 +6°C° 0.5 mm 2 mps 739 mmHg 79%
    11:00 +7°C° 0.9 mm 3 mps 739 mmHg 81%
    12:00 +7°C° 0.9 mm 3 mps 738 mmHg 83%
    13:00 +7°C° 0.9 mm 3 mps 738 mmHg 86%
    14:00 +7°C° 1.3 mm 3 mps 738 mmHg 87%
    15:00 +7°C° 1.3 mm 3 mps 738 mmHg 88%
    16:00 +7°C° 1.3 mm 3 mps 738 mmHg 89%
    17:00 +7°C° 0.7 mm 3 mps 738 mmHg 89%
    18:00 +7°C° 0.7 mm 3 mps 738 mmHg 89%
    19:00 +7°C° 0.7 mm 3 mps 739 mmHg 89%
    20:00 +7°C° 0.8 mm 3 mps 739 mmHg 89%
    21:00 +7°C° 0.8 mm 3 mps 739 mmHg 89%
    22:00 +7°C° 0.8 mm 3 mps 739 mmHg 89%
    23:00 +7°C° 0.7 mm 3 mps 738 mmHg 89%

    15 Diciembre, Sábado

    Tiempo Temperatura Precipitaciones Viento Presión Humedad
    00:00 +7°C° 0.7 mm 3 mps 738 mmHg 89%
    01:00 +7°C° 0.7 mm 3 mps 738 mmHg 89%
    02:00 +7°C° 0.3 mm 3 mps 738 mmHg 88%
    03:00 +7°C° 0.3 mm 3 mps 738 mmHg 88%
    04:00 +7°C° 0.3 mm 2 mps 738 mmHg 88%
    05:00 +7°C° 0.2 mm 2 mps 738 mmHg 87%
    06:00 +7°C° 0.2 mm 2 mps 738 mmHg 87%
    07:00 +7°C° 0.2 mm 2 mps 738 mmHg 86%
    08:00 +7°C° 0.2 mm 2 mps 738 mmHg 86%
    09:00 +8°C° 0.2 mm 2 mps 738 mmHg 86%
    10:00 +9°C° 0.2 mm 2 mps 738 mmHg 86%
    11:00 +9°C° 0.4 mm 2 mps 738 mmHg 85%
    12:00 +9°C° 0.4 mm 2 mps 738 mmHg 84%
    13:00 +10°C° 0.4 mm 2 mps 737 mmHg 84%
    14:00 +9°C° 0.2 mm 2 mps 737 mmHg 84%
    15:00 +9°C° 0.2 mm 2 mps 737 mmHg 85%
    16:00 +9°C° 0.2 mm 2 mps 737 mmHg 85%
    17:00 +8°C° 0.2 mm 2 mps 738 mmHg 85%
    18:00 +8°C° 0.2 mm 2 mps 738 mmHg 86%
    19:00 +8°C° 0.2 mm 2 mps 738 mmHg 86%
    20:00 +8°C° 0.7 mm 2 mps 739 mmHg 87%
    21:00 +8°C° 0.7 mm 2 mps 739 mmHg 87%
    22:00 +7°C° 0.7 mm 2 mps 739 mmHg 87%
    23:00 +7°C° 1.6 mm 2 mps 739 mmHg 88%

    16 Diciembre, Domingo

    Tiempo Temperatura Precipitaciones Viento Presión Humedad
    00:00 +7°C° 1.6 mm 3 mps 739 mmHg 89%
    01:00 +7°C° 1.6 mm 3 mps 739 mmHg 90%
    02:00 +5°C° 2.3 mm 3 mps 739 mmHg 90%
    03:00 +5°C° 2.3 mm 3 mps 739 mmHg 90%
    04:00 +5°C° 2.3 mm 3 mps 739 mmHg 90%
    05:00 +4°C° 1.6 mm 3 mps 740 mmHg 89%
    06:00 +4°C° 1.6 mm 3 mps 740 mmHg 89%
    07:00 +3°C° 1.6 mm 3 mps 740 mmHg 88%
    08:00 +4°C° 0.3 mm 3 mps 741 mmHg 86%
    09:00 +4°C° 0.3 mm 3 mps 741 mmHg 85%
    10:00 +4°C° 0.3 mm 4 mps 742 mmHg 83%
    11:00 +4°C° 0 mm 4 mps 742 mmHg 83%
    12:00 +5°C° 0 mm 4 mps 742 mmHg 82%
    13:00 +5°C° 0 mm 4 mps 742 mmHg 81%
    14:00 +4°C° 0 mm 4 mps 742 mmHg 81%
    15:00 +4°C° 0 mm 4 mps 743 mmHg 82%
    16:00 +3°C° 0 mm 4 mps 743 mmHg 82%
    17:00 +3°C° 0 mm 3 mps 743 mmHg 82%
    18:00 +2°C° 0 mm 3 mps 744 mmHg 83%
    19:00 +1°C° 0 mm 3 mps 744 mmHg 83%
    20:00 +1°C° 0 mm 3 mps 745 mmHg 82%
    21:00 +1°C° 0 mm 3 mps 745 mmHg 82%
    22:00 +1°C° 0 mm 3 mps 745 mmHg 81%
    23:00 +2°C° 0 mm 3 mps 745 mmHg 80%

    17 Diciembre, Lunes

    Tiempo Temperatura Precipitaciones Viento Presión Humedad
    00:00 +2°C° 0 mm 3 mps 745 mmHg 78%
    01:00 +3°C° 0 mm 2 mps 745 mmHg 77%
    02:00 +3°C° 0 mm 2 mps 745 mmHg 76%
    03:00 +4°C° 0 mm 2 mps 745 mmHg 74%
    04:00 +4°C° 0 mm 2 mps 745 mmHg 72%
    05:00 +4°C° 0 mm 2 mps 745 mmHg 71%
    06:00 +4°C° 0 mm 2 mps 745 mmHg 70%
    07:00 +4°C° 0 mm 2 mps 745 mmHg 69%
    08:00 +7°C° 0 mm 1 mps 745 mmHg 71%
    09:00 +8°C° 0 mm 1 mps 745 mmHg 74%
    10:00 +10°C° 0 mm 1 mps 745 mmHg 76%
    11:00 +10°C° 0 mm 1 mps 744 mmHg 75%
    12:00 +11°C° 0 mm 1 mps 744 mmHg 75%
    13:00 +11°C° 0 mm 1 mps 744 mmHg 74%
    14:00 +11°C° 0 mm 1 mps 744 mmHg 74%
    15:00 +10°C° 0 mm 1 mps 744 mmHg 74%
    16:00 +9°C° 0 mm 1 mps 744 mmHg 74%
    17:00 +8°C° 0 mm 1 mps 744 mmHg 73%
    18:00 +8°C° 0 mm 1 mps 744 mmHg 72%
    19:00 +7°C° 0 mm 1 mps 744 mmHg 71%
    20:00 +6°C° 0 mm 2 mps 744 mmHg 72%
    21:00 +6°C° 0 mm 2 mps 744 mmHg 72%
    22:00 +6°C° 0 mm 2 mps 744 mmHg 73%
    23:00 +6°C° 0 mm 2 mps 744 mmHg 73%
    Mostrar más